Simultaneous Nadir Overpasses (SNOs) Predictions

Prediction of SNOs between AURA and NPP Satellite Orbit:

Table of predicted SNOs for the next 14.0 days since TLE Epoch: 5/4/2019
Index Date (AURA) Time (AURA) Lat,Lon (AURA) SZA (AURA ) Date (NPP) Time (NPP) Lat,Lon (NPP) SZA (NPP ) Distance(km) Time Diff (sec)
1 05/04/2019 03:41:40 -79.47,-158.88 103.29 05/04/2019 03:41:21 -79.47,-158.81 103.29 1.37 19
2 05/04/2019 04:31:02 79.62, 9.83 76.48 05/04/2019 04:32:01 79.61, 9.68 76.46 3.11 59
3 05/06/2019 19:08:45 79.30, 148.25 76.20 05/06/2019 19:07:37 79.31, 148.36 76.23 2.33 68
4 05/06/2019 19:58:06 -79.53, -42.54 104.15 05/06/2019 19:58:16 -79.53, -42.54 104.16 0.11 10
5 05/09/2019 11:25:10 79.40, -95.20 75.33 05/09/2019 11:24:31 79.40, -95.13 75.35 1.36 39
6 05/09/2019 12:14:32 -79.60, 73.79 104.97 05/09/2019 12:15:11 -79.59, 73.73 104.99 1.17 39
7 05/12/2019 03:41:36 79.46, 21.07 74.56 05/12/2019 03:41:26 79.46, 21.11 74.56 0.86 10
8 05/12/2019 04:30:58 -79.66,-169.91 105.74 05/12/2019 04:32:06 -79.65,-170.00 105.78 1.85 68
9 05/14/2019 19:08:42 -79.25, -32.04 105.79 05/14/2019 19:07:44 -79.25, -32.12 105.73 1.83 58
10 05/14/2019 19:58:00 79.55, 137.59 73.78 05/14/2019 19:58:19 79.55, 137.62 73.76 0.72 19
11 05/17/2019 11:25:07 -79.35, 84.45 106.53 05/17/2019 11:24:38 -79.34, 84.36 106.49 1.82 29




NCC Satellite Simultaneous Nadir Overpasses (SNOs) Prediction Service
